188  
ASHW40 PHFO 051041  
RWRHI  
 
WEATHER ROUNDUP FOR HAWAII  
NATIONAL WEATHER SERVICE HONOLULU HI  
1200 AM HST SUN FEB 05 2023  
 
THIS IS AN AUTOMATED REPORT THAT HAS NOT BEEN QUALITY CONTROLLED.  
 
NOTE..."FAIR" INDICATES FEW OR NO CLOUDS BELOW 12,000 FEET WITH NO  
SIGNIFICANT WEATHER AND/OR S TO VISIBILITY
.  
 
* - THESE SITES REPORT LIMITED FIELDS  
# - BUOY DATA PROVIDED BY PACIFIC ISLANDS OCEAN OBSERVING SYSTEM.  
 
HIZ001-003-004-029>031-051100-  
KAUAI-NIIHAU-  
 
CITY SKY/WX TMP DP RH WIND PRES REMARKS
 
LIHUE APT MOCLDY 74 68 81 NE18 30.16S  
PORT ALLEN* N/A N/A N/A N/A N12G21 N/A  
POIPU* N/A 70 N/A N/A NE7G16 N/A  
KOKOLE POINT* NOT AVBL  
MOLOAA DAIRY* N/A 72 66 83 E3G12 N/A  
WAIMEA HTS* N/A 70 63 78 NE2 N/A  
PUU OPAE* N/A N/A N/A N/A MISG N/A  
PUU LUA* NOT AVBL  
MAKAHA RIDGE* N/A 64 61 88 NE2 N/A  

 
 
HIZ006-007-009>011-032>036-051100-  
OAHU-  
 
CITY SKY/WX TMP DP RH WIND PRES REMARKS
 
HONOLULU PTCLDY 74 67 78 NE12 30.12F  
KALAELOA CLEAR 72 65 78 NE6 30.12F  
KANEOHE MCB CLOUDY N/A N/A N/A E12G25 30.11F  
WHEELER FIELD CLOUDY 68 59 73 NE7 30.14F  
BELLOWS* N/A 73 N/A N/A E21G30 N/A  
KAHUKU* N/A 72 N/A N/A NE7G20 N/A  
WHEELER* N/A 68 N/A N/A W3G10 N/A  
WAIANAE HARBOR N/A 75 N/A N/A NE6G15 N/A  
DILLINGHAM* N/A 68 66 94 E1 N/A  
KAHUKU TRN* N/A 70 66 88 E6G26 N/A  
KAWAILOA* NOT AVBL  
KII* N/A 72 68 88 E18G31 N/A  
MAKUA RANGE* N/A 73 64 73 NE7G18 N/A  
OAHU FOREST NW N/A 66 64 94 E25G41 N/A  
SCHOFIELD BRK* N/A 66 64 94 CALM N/A  
SCHOFIELD S* NOT AVBL  
WAIANAE VLY* N/A 72 63 73 NE6G24 N/A  
KUAOKALA* N/A 68 64 88 NE13G22 N/A  
HONOULIUULI* NOT AVBL  
MOKUOLOE IS* N/A N/A N/A N/A MISG N/A  
PALEHUA* N/A 63 63 100 NE16G36 N/A  
WAIAWA PHB* NOT AVBL  

 
 
HIZ037>041-051100-  
MOLOKAI-  
 
CITY SKY/WX TMP DP RH WIND PRES REMARKS
 
MOLOKAI AIRPT PTCLDY 71 66 84 NE13G23 30.12F  
KALAUPAPA NOT AVBL  
MAKAPULAPAI* N/A 72 68 88 E20G35 N/A  
MOLOKAI 1* N/A 63 59 88 SE3G18 N/A  
PUU ALII* N/A 58 58 99 VRB2G9 N/A  

 
 
HIZ015-042>044-051100-  
LANAI-  
 
CITY SKY/WX TMP DP RH WIND PRES REMARKS
 
LANAI CITY CLOUDY 68 65 90 SE9 30.16S  
LANAI 1* N/A 66 64 94 E8G30 N/A  

 
 
HIZ016-051100-  
KAHOOLAWE-  
 
CITY SKY/WX TMP DP RH WIND PRES REMARKS
 
KAHOOLAWE* NOT AVBL  
HAKIOAWA* NOT AVBL  
HONOKANAIA* NOT AVBL  
KANELOA* N/A 68 68 100 NE18G31 30.16F  
KEALIALALO* NOT AVBL  
LUA MAKIKA* NOT AVBL  

 
 
HIZ017-018-022-045>050-051100-  
MAUI-  
 
CITY SKY/WX TMP DP RH WIND PRES REMARKS
 
KAHULUI MOCLDY 70 67 90 NE16 30.11S  
KAPALUA-W MAUI DRZL/FOG N/A N/A N/A E15G26 30.13 VSB 1  
HANA AIRPORT NOT AVBL  
HANA* N/A 73 N/A N/A E8G15 N/A  
HALEAKALA SUMM N/A N/A N/A N/A NE17 N/A  
MAALAEA BAY* N/A 72 N/A N/A N15G25 N/A  
HALEAKALA* NOT AVBL  
KAUPO GAP* NOT AVBL  
KULA 1* N/A 51 39 63 E3G13 N/A  

 
 
HIZ023-026-051>054-051100-  
BIG ISLAND OF HAWAII COAST AND LOWER SLOPES-  
 
CITY SKY/WX TMP DP RH WIND PRES REMARKS
 
KAILUA KONA PTCLDY 75 67 76 SE10 30.07F  
HILO CLOUDY 67 65 93 W9 30.14F  
HONOKAA* NOT AVBL  
KAWAIHAE MWT* NOT AVBL  
KAWAIHAE* N/A 75 N/A N/A N6 30.03  
SOUTH POINT* N/A 70 N/A N/A E17G25 N/A  
UPOLU AIRPORT* N/A 73 N/A N/A NE24G32 N/A  
KAMUELA* NOT AVBL  
HAKALAU* N/A 48 45 87 SW3G15 N/A  
KALOKO-HONOKO* N/A 72 64 78 E3 30.06F  
PALI 2* N/A 61 57 88 NE12G21 N/A  
KEALAKOMO* N/A N/A N/A N/A VRB10G18 N/A  
KAUPULEHU* N/A 66 59 77 CALM N/A  
KAPAPALA* N/A 66 56 71 N6G12 N/A  
LOWER KAHUKU* N/A 59 57 94 N2G17 N/A  
PUHE CS* N/A 75 63 64 E3G12 30.04R  
PUHO CS* N/A 73 67 81 E3 N/A  
PTA KEAMUKU* N/A 55 55 100 E5G10 N/A  
WAIKOLOA* N/A 68 59 73 E12G18 N/A  

 
 
HIZ027-028-051100-  
BIG ISLAND OF HAWAII INTERIOR AND SUMMMITS-  
 
CITY SKY/WX TMP DP RH WIND PRES REMARKS
 
BRADSHAW FIELD CLOUDY 51 47 86 E15 30.40F  
MK VISITOR CEN N/A 46 28 49 N14 N/A  
MAUNA KEA* N/A 27 14 59 NE14 N/A WCI 15  
MAUNA LOA* NOT AVBL  
MAUNA LOA 1* NOT AVBL  
PTA KIPUKA* N/A 52 46 82 SW2G8 N/A  
PTA RANGE 17* N/A 55 46 71 SE17G26 N/A  
PTA WEST* N/A 57 54 88 N3G10 N/A  
NENE CABIN* N/A 46 45 93 NE7G15 N/A  
AHUMOA* N/A 48 39 71 E2G9 N/A  
PTA PORTABLE* NOT AVBL  
PUU MALI* N/A 57 28 33 S7G25 N/A  

 
 
HIC003-051100-  
NORTHWEST ISLANDS-  
 
CITY SKY/WX TMP DP RH WIND PRES REMARKS
 
MIDWAY ISLAND MOCLDY 72 70 94 W7 30.13R  
MIDWAY NOS* NOT AVBL  
FRENCH FRIGATE NOT AVBL  

 
 
PHZ110>124-180-051100-  
BUOY REPORTS  
 
STATION/POSITION TIME TEMP WIND PRES WAVE SWELL
 
AIR SEA DIR/SP/G HT/PER HT/DIR  
(UTC) (F) (DEG/KT/KT) (MB) (FT/S) (FT/D)  
BUOY 51101 1020 74 74 100/ 17/ 23 1021.7 9/ 8 7/ 80  
BUOY 51100 NOT AVBL  
BUOY 51002 1020 77 78 70/ 17/ 23 1016.9 9/ 8 3/100  
BUOY 51003 1020 77 80/ 16/ 19 1018.1 9/ 9 7/ 80  
BUOY 51004 1020 76 76 70/ 19/ 25 1016.1 9/ 8 3/ 70  
WAIMEA BAY# 0956 76 N/A 8/ 8 3  
MOKAPU POINT# 0956 77 N/A 8/ 8 3  
LANAI# 0958 77 N/A 3/13 2/210  
BARBERS PT# NOT AVBL  
PAUWELA# NOT AVBL  
HILO# 1015 77 N/A 8/ 8 3/360  
KANEOHE BAY# 0956 77 N/A 9/ 8 3  
KANEOHE BAY 2# NOT AVBL  
HANALEI# 0956 76 N/A 9/ 8 3/350  
KAHULUI HARBOR 1000 72 77 70/ 18/ 24 1019.6  
HONOLULU HARBOR 1000 73 76 110/ 5/ 8 1019.7  
PEARL HARBOR# 1000 74 76 N/A 3/ 7 2/160  
KILO NALU NOT AVBL  
HILO HARBOR 1000 68 77 250/ 5/ 13 1019.8  
MOKUOLOE 0936 71 76 70/ 14/ 22 1020.3F  
NAWILIWILI 1000 74 76 70/ 15/ 20 1021.3  
WHOTS BUOY NOT AVBL  
BUOY 51028 NOT AVBL  

 
   
.....................KEY.....................................
 
 
SKY/WX - SKY CONDITIONS/PRESENT WEATHER  
TMP - TEMPERATURE IN FAHRENHEIT  
DWPT - DEWPOINT IN FAHRENHEIT  
RH - RELATIVE HUMIDITY IN PERCENT  
WIND - DIRECTION AND SPEED /MPH FOR ISLANDS...KTS FOR BUOYS/  
PRES - MEAN SEA LEVEL PRESSURE IN INCHES OF HG  
VSB - VISIBILITY IN MILES  
HX - HEAT INDEX  
WCI - WIND CHILL INDEX  
VRB - VARIABLE WIND DIRECTION  
N/A - NOT AVAILABLE  
 
 
CLICK HERE TO GO TO PREVIOUS BULLETINS.

The Nexlab HI Page Main Text Page